Regional Weather Roundup
Issued by NWS Northern Indiana

Home | Current Version | Previous Version | Text Only | Print | Product List | Glossary On
Versions: 1 2 3 4 5 6 7 8 9 10 11 12 13 14 15 16 17 18 19 20 21 22 23 24 25 26 27 28 29 30 31 32 33 34 35 36 37 38 39 40 41 42 43 44 45 46 47 48 49 50
661
ASUS43 KIWX 230110
RWRIWX

KIWX WEATHER ROUNDUP
NATIONAL WEATHER SERVICE NORTHERN INDIANA
900 PM EDT WED MAR 22 2017

NOTE: "FAIR" INDICATES FEW OR NO CLOUDS BELOW 12,000 FEET WITH NO
SIGNIFICANT WEATHER AND/OR OBSTRUCTIONS TO VISIBILITY.

* THESE STATIONS ARE NOT UNDER NWS QUALITY CONTROL. THEY ALSO MAY NOT
  REPORT WEATHER SUCH AS PRECIPITATION OR FOG.

INZ001>027-230200-
NORTHERN INDIANA

CITY           SKY/WX    TMP DP  RH WIND       PRES   REMARKS
GARY*          MOCLDY    32  21  64 NE9       30.51F WCI  24
VALPARAISO     PTCLDY    30  21  69 N6        30.49F WCI  24
MICHIGAN CITY* PTCLDY    30  21  69 NE5       30.51S WCI  25
LAPORTE*       CLOUDY    29  21  73 N7        30.50S WCI  22
KNOX*          CLOUDY    32  -8  18 E5        30.49F WCI  27
SOUTH BEND     PTCLDY    33  12  41 E5        30.50S WCI  29
ELKHART*       PTCLDY    32  12  43 E3        30.49F
GOSHEN         CLOUDY    31  14  49 E3        30.49S
MONTICELLO*    CLEAR     33  18  53 E3        30.48S
LOGANSPORT*    PTCLDY    32  23  69 E8        30.49F WCI  25
ROCHESTER*     CLOUDY    34  18  51 SE6       30.49F WCI  29
WARSAW*        CLOUDY    32  16  51 E3        30.49S
ANGOLA*        CLEAR     30  16  55 SE3       30.49S
FORT WAYNE     CLOUDY    30  17  58 E7        30.50S WCI  23
HUNTINGTON*    PTCLDY    31  18  57 CALM      30.50R
PERU/GRISSOM   CLOUDY    32  18  56 E6        30.47R WCI  27
MARION*        CLOUDY    32  20  61 E5        30.50R WCI  27

$$
INZ028>050-230200-
CENTRAL INDIANA

CITY           SKY/WX    TMP DP  RH WIND       PRES   REMARKS
LAFAYETTE      CLEAR     33  19  56 E12       30.47S WCI  24
KOKOMO*        PTCLDY    31  24  75 E6        30.49R WCI  25
MUNCIE*        CLOUDY    33  21  61 E6        30.48R WCI  28
INDIANAPOLIS   PTCLDY    36  19  50 E13       30.45R

$$
MIZ043>046-050>051-056>058-064>065-071>073-077>080-230200-
SOUTHWEST LOWER MICHIGAN

CITY           SKY/WX    TMP DP  RH WIND       PRES   REMARKS
BATTLE CREEK   CLOUDY    33   8  35 E5        30.50S WCI  29
BENTON HARBOR  PTCLDY    29  18  63 NE3       30.51S
COLDWATER*     CLOUDY    31  10  41 CALM      30.49F
HILLSDALE*     PTCLDY    28  12  50 SE3       30.48S
HOLLAND        CLOUDY    30  17  58 CALM      30.52S
GRAND RAPIDS   MOCLDY    30  10  43 SE7       30.50F WCI  23
KALAMAZOO      PTCLDY    33   9  36 SE3       30.50S
STURGIS*       CLOUDY    31  13  48 E3        30.48F
THREE RIVERS*  FAIR      30  18  60 CALM      30.50S

$$
OHZ001>008-015>018-024>025-230200-
NORTHWEST OHIO

CITY           SKY/WX    TMP DP  RH WIND       PRES   REMARKS
WAUSEON*       FAIR      30  18  59 E5        30.51F WCI  25
DEFIANCE       CLOUDY    29  16  58 E6        30.52S WCI  23
FINDLAY        PTCLDY    29  13  51 E8        30.51F WCI  21
TOLEDO EXPRESS CLEAR     28  15  58 E5        30.53S WCI  23
TOLEDO METCALF PTCLDY    27  16  63 E7        30.55S WCI  19
LIMA           PTCLDY    29  18  63 NE9       30.50R WCI  20

$$
AND FOR LAKE MICHIGAN COASTAL AND OPEN LAKE BUOY OBSERVATIONS

STATION/POSITION TEMP    WIND        PRES    VSBY  WAVE
                 AIR SEA DIR/SP/G                  HT/PER
                 (F)     (DEG/KT/KT) (MB)    (MI)  (FT/S)
CALUMET HARBOR    30      20/  5/  8 1032.4F
MICHIGAN CITY     30      30/ 13/ 14   N/A
BURNS HARBOR      31      60/ 11/ 12 1033.2F
SAINT JOSEPH      30      40/  4/ 10 1033.2

$$
&&




USA.gov is the U.S. government's official web portal to all federal, state and local government web resources and services.